Terminal Aerodrome Forecast
Issued by NWS

Home | Current Version | Previous Version | Text Only | Print | Product List | Glossary On
Versions: 1 2 3 4 5 6 7 8 9 10 11 12 13 14 15 16 17 18 19 20
000
FTUS41 KBGM 301700
TAFELM
TAF
KELM 301733Z 3018/3118 24011G18KT P6SM BKN070 OVC090
      TEMPO 3018/3022 5SM -SHRA OVC035
     FM310000 22003KT P6SM BKN120
     FM310700 25002KT 5SM BR BKN120
     FM311200 25005KT P6SM BKN025
     FM311400 26008KT P6SM BKN250=

USA.gov is the U.S. government's official web portal to all federal, state and local government web resources and services.